Weather History for KEST - January, 2014

Change the Weather History Date:

Saturday, January 11, 2014

  Actual Average Record
Temperature  
Mean Temperature 27 °F 15 °F  
Max Temperature 33 °F 24 °F 52 °F (1990)
Min Temperature 20 °F 7 °F -27 °F (1982)
Degree Days  
Heating Degree Days 38 50  
Month to date heating degree days 652 545  
Since 1 July heating degree days 3904 3688  
Cooling Degree Days 0 0  
Month to date cooling degree days 0 0  
Year to date cooling degree days 0 0  
Moisture  
Dew Point 23 °F    
Average Humidity 89    
Maximum Humidity 100    
Minimum Humidity 78    
Precipitation  
Precipitation 0.00 in 0.01 in 1.37 in (1975)
Month to date precipitation 0.01 0.08  
Sea Level Pressure  
Sea Level Pressure 29.68 in    
Wind  
Wind Speed 14 mph (West)    
Max Wind Speed 25 mph    
Max Gust Speed 31 mph    
Visibility 9 miles    
Events      
T = Trace of Precipitation, MM = Missing Value Source: NWS Daily Summary

Daily Weather History Graph

Daily Weather History Graph

Search for Another Location

Airport or City:

Trip Planner

Search our weather history database for the weather conditions in past years. The results will help you decide how hot, cold, wet, or windy it might be!

Date:

Astronomy

Jan. 11, 2014 Rise Set
Actual Time 7:50 AM CST 5:03 PM CST
Civil Twilight 7:18 AM CST 5:35 PM CST
Nautical Twilight 6:42 AM CST 6:11 PM CST
Astronomical Twilight 6:08 AM CST 6:45 PM CST
Moon 1:49 PM CST (1/11) 3:54 AM CST (1/11)
Length of Visible Light 10h 17m
Length of Day
9h 13m
Waxing Gibbous, 83% of the Moon is Illuminated
Jan 11
Waxing Gibbous
Jan 15
Full
Jan 23
Last Quarter
Jan 30
New
Feb 6
First Quarter

Hourly Weather History & Observations

Time (CST) Temp. Windchill Dew Point Humidity Pressure Visibility Wind Dir Wind Speed Gust Speed Precip Events Conditions
12:52 AM 24.1 °F 13.1 °F 23.0 °F 96% 29.55 in 4.0 mi West 11.5 mph - N/A   Clear
1:52 AM 21.9 °F 11.0 °F 19.9 °F 92% 29.56 in 8.0 mi WNW 10.4 mph - N/A   Clear
2:52 AM 24.1 °F 12.5 °F 19.9 °F 84% 29.56 in 10.0 mi West 12.7 mph - N/A   Clear
3:52 AM 21.9 °F 11.0 °F 18.0 °F 85% 29.57 in 10.0 mi West 10.4 mph - N/A   Clear
4:52 AM 21.0 °F 8.6 °F 18.0 °F 88% 29.57 in 10.0 mi West 12.7 mph - N/A   Clear
5:52 AM 21.0 °F 8.6 °F 17.1 °F 85% 29.59 in 10.0 mi WNW 12.7 mph - N/A   Clear
6:52 AM 21.0 °F 8.1 °F 17.1 °F 85% 29.61 in 10.0 mi NW 13.8 mph - N/A   Clear
7:44 AM 21.0 °F 7.6 °F 17.1 °F 85% 29.59 in 10.0 mi NW 15.0 mph - N/A   Scattered Clouds
7:52 AM 21.0 °F 8.1 °F 17.1 °F 85% 29.65 in 10.0 mi NW 13.8 mph - N/A   Mostly Cloudy
8:52 AM 23.0 °F 10.1 °F 21.0 °F 92% 29.67 in 10.0 mi NW 15.0 mph - N/A   Overcast
9:52 AM 25.0 °F 11.3 °F 23.0 °F 92% 29.70 in 6.0 mi NW 18.4 mph - N/A   Overcast
10:52 AM 28.0 °F 14.6 °F 25.0 °F 88% 29.72 in 8.0 mi NW 20.7 mph 28.8 mph N/A   Overcast
11:10 AM 28.9 °F 15.8 °F 26.1 °F 89% 29.68 in 8.0 mi NW 20.7 mph - N/A   Overcast
11:52 AM 30.0 °F 18.3 °F 27.0 °F 88% 29.72 in 10.0 mi NW 17.3 mph - N/A   Overcast
12:52 PM 30.9 °F 18.7 °F 27.0 °F 85% 29.73 in 10.0 mi NW 19.6 mph 29.9 mph N/A   Overcast
1:52 PM 32.0 °F 20.8 °F 27.0 °F 82% 29.73 in 10.0 mi NW 17.3 mph - N/A   Mostly Cloudy
2:44 PM 32.0 °F 22.1 °F 27.0 °F 82% 29.67 in 10.0 mi WNW 13.8 mph - N/A   Scattered Clouds
2:52 PM 33.1 °F 24.4 °F 28.0 °F 82% 29.73 in 10.0 mi WNW 11.5 mph - N/A   Partly Cloudy
3:52 PM 32.0 °F 21.2 °F 28.0 °F 85% 29.75 in 10.0 mi West 16.1 mph - N/A   Partly Cloudy
4:52 PM 28.9 °F 18.2 °F 26.1 °F 89% 29.77 in 10.0 mi West 13.8 mph - N/A   Clear
5:09 PM 28.0 °F 15.7 °F 26.1 °F 92% 29.72 in 9.0 mi West 17.3 mph - N/A   Partly Cloudy
5:34 PM 28.0 °F 17.5 °F 25.0 °F 88% 29.72 in 9.0 mi West 12.7 mph - N/A   Mostly Cloudy
5:52 PM 27.0 °F 14.3 °F 25.0 °F 92% 29.79 in 9.0 mi West 17.3 mph 23.0 mph N/A   Overcast
6:52 PM 26.1 °F 15.6 °F 25.0 °F 96% 29.79 in 7.0 mi WSW 11.5 mph 19.6 mph N/A   Overcast
7:19 PM 24.1 °F 14.4 °F 24.1 °F 100% 29.72 in 6.0 mi SW 9.2 mph - N/A   Scattered Clouds
7:52 PM 21.9 °F 13.4 °F 21.0 °F 96% 29.76 in 6.0 mi South 6.9 mph - N/A   Clear
8:52 PM 21.9 °F 11.7 °F 21.0 °F 96% 29.75 in 8.0 mi South 9.2 mph - N/A   Clear
9:52 PM 24.1 °F 14.4 °F 21.0 °F 88% 29.75 in 9.0 mi SSW 9.2 mph - N/A   Clear
10:52 PM 21.0 °F 9.3 °F 19.0 °F 92% 29.73 in 9.0 mi South 11.5 mph - N/A   Clear
11:52 PM 23.0 °F 10.6 °F 19.9 °F 88% 29.68 in 10.0 mi South 13.8 mph - N/A   Clear